Powrót do katalogu

CZ-3A R/B

AktywnyHEO
NORAD 30324·ROCKET BODY·🇨🇳 China

Wystrzelony Feb 2, 2007 z Xichang Satellite Launch Center

Loading…

Następne Przeloty (najbliższe 24 godziny)

TLE

ŚwieżeSource: Space-Track

Epoka: Sep 14, 2026, 14:05 UTC

1 30324U 07003B   26257.58707580  .00004666  00000-0  78779-3 0  9997
2 30324  24.6607 266.1375 5766049 243.2497  47.5920  4.40225122237413

Śledź CZ-3A R/B w czasie rzeczywistym z AllMySat

Download on the App Store